Location: Sternwarte ZA, Rosenfeld-Brittheim
(48.2889°N, 8.6789°E)
Time: 17:06:44
(UTC+02:00)

ISS - Pass Details

Date: 25 May 2020
Orbit: 417 x 420 km, 51.6° (Epoch: 26 May)

Event Time Altitude Azimuth Distance (km) Brightness Sun altitude
Rises 22:18:48 0° 285° (WNW) 2,366 1.1 -9.4°
Reaches altitude 10° 22:20:57 10° 291° (WNW) 1,502 0.2 -9.6°
Maximum altitude 22:24:14 49° 8° (N) 554 -2.9 -10.0°
Drops below altitude 10° 22:27:31 10° 84° (E) 1,501 -1.3 -10.3°
Enters shadow 22:28:26 - 88° (E) 1,862 -0.8 -10.4°
